GW3384 Weather Reports


time (UTC)temp
C
wind
direction
speed
KPH
gust
KPH
rain 1hr
cm
rain 24hr
cm
rain mn
cm
humidity
%
barometer
mb
20260509234517 25 347 3.2 3.2 0.00 0.00 0.00 87 1009.8
20260509234015 25 34 1.6 1.6 0.00 0.00 0.00 88 1009.2
20260509233512 25 41 1.6 3.2 0.00 0.00 0.00 89 1008.7
20260509233010 26 185 1.6 3.2 0.00 0.00 0.00 89 1008.7
20260509232507 26 86 1.6 3.2 0.00 0.00 0.00 88 1008.4
20260509232003 27 4 3.2 3.2 0.00 0.00 0.00 88 1008.4
20260509231459 27 0 3.2 4.8 0.00 0.00 0.00 87 1008.4
20260509230957 28 49 1.6 1.6 0.00 0.00 0.00 85 1008.2
20260509230453 30 30 0.0 0.0 0.00 0.00 0.00 80 1008.0
20260509225949 30 30 0.0 0.0 0.00 0.00 0.00 78 1008.0
20260509225446 30 50 1.6 1.6 0.00 0.00 0.00 78 1008.0
20260509224941 30 37 1.6 1.6 0.00 0.00 0.00 82 1007.9
20260509224437 31 28 1.6 1.6 0.00 0.00 0.00 76 1007.7
20260509223935 31 37 1.6 1.6 0.00 0.00 0.00 73 1007.7
20260509223431 31 340 0.0 1.6 0.00 0.00 0.00 71 1008.2
20260509222929 31 355 1.6 1.6 0.00 0.00 0.00 73 1008.0
20260509222424 30 278 1.6 3.2 0.00 0.00 0.00 75 1007.9
20260509221920 31 227 3.2 3.2 0.00 0.00 0.00 72 1007.9
20260509221417 31 355 3.2 3.2 0.00 0.00 0.00 73 1008.0
20260509220913 30 46 1.6 3.2 0.00 0.00 0.00 78 1007.9
20260509220409 30 72 0.0 1.6 0.00 0.00 0.00 82 1008.0
20260509215905 31 48 1.6 3.2 0.00 0.00 0.00 75 1008.0
20260509215401 30 22 0.0 0.0 0.00 0.00 0.00 78 1007.6
20260509214858 30 45 1.6 1.6 0.00 0.00 0.00 84 1007.8
20260509214355 28 21 0.0 0.0 0.00 0.00 0.00 82 1007.7
20260509213852 29 20 0.0 0.0 0.00 0.00 0.00 83 1007.9
20260509213347 30 18 0.0 0.0 0.00 0.00 0.00 81 1007.9
20260509212846 30 18 0.0 0.0 0.00 0.00 0.00 80 1008.1
20260509212343 30 18 0.0 0.0 0.00 0.00 0.00 78 1008.0
20260509211839 30 17 0.0 0.0 0.00 0.00 0.00 78 1008.0
20260509211334 30 28 0.0 0.0 0.00 0.00 0.00 76 1008.1
20260509210831 31 33 3.2 3.2 0.00 0.00 0.00 74 1008.0
20260509210329 31 31 0.0 1.6 0.00 0.00 0.00 73 1008.1
20260509205828 31 215 1.6 1.6 0.00 0.00 0.00 71 1008.4
20260509205323 31 310 3.2 3.2 0.00 0.00 0.00 71 1008.1
20260509204820 30 356 0.0 0.0 0.00 0.00 0.00 73 1008.3
20260509204316 30 26 1.6 1.6 0.00 0.00 0.00 75 1008.4
20260509203813 30 260 3.2 3.2 0.00 0.00 0.00 73 1008.6
20260509203310 30 71 3.2 3.2 0.00 0.00 0.00 79 1008.7
20260509202806 30 53 1.6 1.6 0.00 0.00 0.00 77 1008.5
20260509202306 29 359 6.4 6.4 0.00 0.00 0.00 78 1008.6
20260509201801 29 13 0.0 0.0 0.00 0.00 0.00 75 1008.7
20260509201259 30 265 6.4 6.4 0.00 0.00 0.00 76 1008.7
20260509200755 30 215 1.6 1.6 0.00 0.00 0.00 75 1008.8
20260509200250 29 234 3.2 3.2 0.00 0.00 0.00 78 1009.0
20260509195746 29 296 6.4 9.7 0.00 0.00 0.00 77 1008.9
20260509195242 30 91 0.0 1.6 0.00 0.00 0.00 78 1008.9
20260509194736 29 344 0.0 0.0 0.00 0.00 0.00 78 1009.0
20260509194233 30 309 3.2 4.8 0.00 0.00 0.00 76 1009.1
20260509193730 30 40 1.6 1.6 0.00 0.00 0.00 79 1008.8
20260509193229 28 118 0.0 1.6 0.00 0.00 0.00 80 1009.2
20260509192726 28 292 1.6 1.6 0.00 0.00 0.00 79 1009.4
20260509192221 29 12 0.0 0.0 0.00 0.00 0.00 81 1009.5
20260509191716 28 64 0.0 0.0 0.00 0.00 0.00 84 1009.1
20260509191213 28 11 1.6 1.6 0.00 0.00 0.00 84 1009.4
20260509190709 28 42 1.6 1.6 0.00 0.00 0.00 85 1009.7
20260509190207 28 39 1.6 1.6 0.00 0.00 0.00 84 1009.4
20260509185704 28 54 3.2 3.2 0.00 0.00 0.00 83 1009.8
20260509185200 28 10 1.6 1.6 0.00 0.00 0.00 81 1009.7
20260509184658 28 250 3.2 3.2 0.00 0.00 0.00 82 1009.8
20260509184155 28 29 3.2 3.2 0.00 0.00 0.00 81 1009.5
20260509183651 28 61 3.2 3.2 0.00 0.00 0.00 84 1009.7
20260509183146 28 36 0.0 0.0 0.00 0.00 0.00 85 1009.7
20260509182642 28 59 1.6 1.6 0.00 0.00 0.00 87 1009.9
20260509182140 28 17 0.0 0.0 0.00 0.00 0.00 84 1009.8
20260509181638 28 26 0.0 0.0 0.00 0.00 0.00 86 1009.8
20260509181135 27 23 0.0 0.0 0.00 0.00 0.00 84 1010.0
20260509180631 27 345 0.0 1.6 0.00 0.00 0.00 85 1010.3
20260509180128 27 354 0.0 0.0 0.00 0.00 0.00 86 1010.2
20260509175624 27 15 0.0 0.0 0.00 0.00 0.00 90 1010.1
20260509175121 27 14 0.0 0.0 0.00 0.00 0.00 89 1010.4
20260509174617 26 15 0.0 0.0 0.00 0.00 0.00 91 1010.3
20260509174112 27 14 0.0 0.0 0.00 0.00 0.00 88 1010.5
20260509173608 27 15 0.0 1.6 0.00 0.00 0.00 86 1010.4
20260509173104 26 15 1.6 1.6 0.00 0.00 0.00 88 1010.2
20260509172601 27 10 0.0 0.0 0.00 0.00 0.00 89 1010.5
20260509172056 27 7 0.0 0.0 0.00 0.00 0.00 89 1010.3
20260509171552 27 7 0.0 0.0 0.00 0.00 0.00 85 1010.4
20260509171049 27 329 1.6 1.6 0.00 0.00 0.00 85 1010.5
20260509170545 27 350 1.6 1.6 0.00 0.00 0.00 85 1010.6
20260509170041 27 17 1.6 3.2 0.00 0.00 0.00 88 1010.5
20260509165540 27 353 0.0 1.6 0.00 0.00 0.00 87 1010.7
20260509165035 26 345 0.0 0.0 0.00 0.00 0.00 87 1010.6
20260509164532 25 32 0.0 1.6 0.00 0.00 0.00 94 1010.6
20260509164027 24 346 3.2 3.2 0.00 0.00 0.00 99 1010.9
20260509163526 24 327 1.6 1.6 0.00 0.00 0.00 99 1010.8
20260509163020 24 36 1.6 1.6 0.00 0.00 0.00 99 1010.8
20260509162518 24 35 0.0 1.6 0.00 0.00 0.00 99 1010.8
20260509162014 23 291 6.4 9.7 0.00 0.00 0.00 99 1010.7
20260509161510 24 355 0.0 0.0 0.00 0.00 0.00 99 1010.8
20260509161005 23 220 3.2 4.8 0.00 0.00 0.00 99 1011.1
20260509160501 23 226 3.2 3.2 0.00 0.00 0.00 99 1011.0
20260509155956 23 304 3.2 3.2 0.00 0.00 0.00 99 1011.1
20260509155453 24 337 0.0 0.0 0.00 0.00 0.00 99 1011.0
20260509154949 25 85 1.6 1.6 0.00 0.00 0.00 99 1011.0
20260509154445 23 9 1.6 1.6 0.00 0.00 0.00 99 1010.9
20260509153943 23 291 3.2 4.8 0.00 0.00 0.00 99 1011.1
20260509153440 23 28 0.0 1.6 0.00 0.00 0.00 99 1011.0
20260509152937 23 320 0.0 1.6 0.00 0.00 0.00 99 1011.2
20260509152433 23 34 0.0 0.0 0.00 0.00 0.00 99 1010.8
20260509151930 24 43 1.6 1.6 0.00 0.00 0.00 99 1011.0
20260509151426 23 26 0.0 0.0 0.00 0.00 0.00 99 1010.7
20260509150924 23 292 1.6 1.6 0.00 0.00 0.00 99 1010.8
20260509150421 23 261 4.8 4.8 0.00 0.00 0.00 99 1010.3
20260509145920 23 343 3.2 3.2 0.00 0.00 0.00 99 1010.4
20260509145420 23 247 3.2 3.2 0.00 0.00 0.00 99 1010.1
20260509144915 23 27 0.0 0.0 0.00 0.00 0.00 99 1010.0
20260509144412 23 30 0.0 0.0 0.00 0.00 0.00 99 1010.0
20260509143909 23 41 0.0 0.0 0.00 0.00 0.00 99 1009.9
20260509143407 23 13 0.0 0.0 0.00 0.00 0.00 99 1009.9
20260509142903 23 296 3.2 4.8 0.00 0.00 0.00 99 1009.9
20260509142359 23 357 0.0 0.0 0.00 0.00 0.00 99 1009.9
20260509141855 23 347 0.0 0.0 0.00 0.00 0.00 99 1010.1
20260509141352 23 12 0.0 0.0 0.00 0.00 0.00 99 1010.1
20260509140849 23 18 1.6 1.6 0.00 0.00 0.00 99 1010.0
20260509140345 23 2 0.0 0.0 0.00 0.00 0.00 99 1010.0
20260509135844 23 7 0.0 0.0 0.00 0.00 0.00 99 1010.3
20260509135341 23 7 0.0 0.0 0.00 0.00 0.00 99 1010.3
20260509134838 23 4 0.0 0.0 0.00 0.00 0.00 99 1010.6
20260509134335 22 334 0.0 0.0 0.00 0.00 0.00 99 1010.6
20260509133832 22 354 0.0 0.0 0.00 0.00 0.00 99 1010.6
20260509133328 22 7 0.0 0.0 0.00 0.00 0.00 99 1010.7
20260509132828 22 7 0.0 0.0 0.00 0.00 0.00 99 1010.9
20260509132326 22 7 0.0 0.0 0.00 0.00 0.00 99 1010.6
20260509131822 22 332 0.0 0.0 0.00 0.00 0.00 99 1010.4
20260509131319 22 0 0.0 0.0 0.00 0.00 0.00 99 1010.8
20260509130815 22 357 0.0 0.0 0.00 0.00 0.00 99 1010.5
20260509130311 22 359 0.0 0.0 0.00 0.00 0.00 99 1011.0
20260509125808 22 358 0.0 0.0 0.00 0.00 0.00 99 1010.7
20260509125307 22 345 1.6 1.6 0.00 0.00 0.00 99 1010.5
20260509124801 22 9 0.0 0.0 0.00 0.00 0.00 99 1010.7
20260509124257 22 9 0.0 0.0 0.00 0.00 0.00 99 1010.6
20260509123756 22 9 0.0 0.0 0.00 0.00 0.00 99 1010.6
20260509123253 22 9 0.0 0.0 0.00 0.00 0.00 99 1010.7
20260509122748 22 9 0.0 0.0 0.00 0.00 0.00 99 1010.5
20260509122246 22 9 0.0 0.0 0.00 0.00 0.00 99 1010.9
20260509121742 22 9 0.0 0.0 0.00 0.00 0.00 99 1010.7
20260509121239 22 9 0.0 0.0 0.00 0.00 0.00 99 1010.9
20260509120738 22 9 0.0 0.0 0.00 0.00 0.00 99 1010.9
20260509120235 22 9 0.0 0.0 0.00 0.00 0.00 99 1010.5
20260509115733 22 9 0.0 0.0 0.00 0.00 0.00 99 1010.5
20260509115230 22 9 0.0 0.0 0.00 0.00 0.00 99 1010.4
20260509114728 22 9 0.0 0.0 0.00 0.00 0.00 99 1010.2
20260509114226 22 9 0.0 0.0 0.00 0.00 0.00 99 1010.3
20260509113725 22 9 0.0 0.0 0.00 0.00 0.00 99 1010.2
20260509113222 21 9 0.0 0.0 0.00 0.00 0.00 99 1010.3
20260509112718 22 10 0.0 0.0 0.00 0.00 0.00 99 1010.1
20260509112210 22 9 0.0 0.0 0.00 0.00 0.00 99 1009.9
20260509111707 22 9 0.0 0.0 0.00 0.00 0.00 99 1009.5
20260509111204 22 9 0.0 0.0 0.00 0.00 0.00 99 1009.7
20260509110701 22 9 0.0 0.0 0.00 0.00 0.00 99 1009.8
20260509110157 22 9 0.0 0.0 0.00 0.00 0.00 99 1009.6
20260509105656 22 9 0.0 0.0 0.00 0.00 0.00 99 1009.6
20260509105153 21 9 0.0 0.0 0.00 0.00 0.00 99 1009.6
20260509104650 21 13 0.0 0.0 0.00 0.00 0.00 99 1009.5
20260509104147 22 5 0.0 0.0 0.00 0.00 0.00 99 1009.6
20260509103645 22 5 0.0 0.0 0.00 0.00 0.00 99 1009.9
20260509103142 22 359 0.0 0.0 0.00 0.00 0.00 99 1009.9
20260509102640 22 357 0.0 0.0 0.00 0.00 0.00 99 1009.8
20260509102137 22 348 0.0 0.0 0.00 0.00 0.00 99 1010.0
20260509101633 22 325 0.0 0.0 0.00 0.00 0.00 99 1010.0
20260509101130 22 358 1.6 1.6 0.00 0.00 0.00 99 1010.1
20260509100627 22 357 0.0 0.0 0.00 0.00 0.00 99 1009.9
20260509100124 22 344 0.0 1.6 0.00 0.00 0.00 99 1009.9
20260509095621 22 354 1.6 1.6 0.00 0.00 0.00 99 1009.7
20260509095118 22 346 0.0 0.0 0.00 0.00 0.00 99 1009.9
20260509094614 21 353 0.0 0.0 0.00 0.00 0.00 99 1009.4
20260509094111 21 354 0.0 0.0 0.00 0.00 0.00 99 1009.3
20260509093610 21 354 0.0 0.0 0.00 0.00 0.00 99 1009.3
20260509093106 21 354 0.0 0.0 0.00 0.00 0.00 99 1009.6
20260509092604 21 354 0.0 0.0 0.00 0.00 0.00 99 1009.5
20260509092103 21 354 0.0 0.0 0.00 0.00 0.00 99 1009.6
20260509091600 22 354 0.0 0.0 0.00 0.00 0.00 99 1009.7
20260509091056 22 353 0.0 0.0 0.00 0.00 0.00 99 1009.5
20260509090554 22 353 0.0 0.0 0.00 0.00 0.00 99 1009.8
20260509090052 22 353 0.0 0.0 0.00 0.00 0.00 99 1009.8
20260509085548 22 354 0.0 0.0 0.00 0.00 0.00 99 1009.7
20260509085044 22 354 0.0 0.0 0.00 0.00 0.00 99 1009.6
20260509084542 22 355 0.0 0.0 0.00 0.00 0.00 99 1009.6
20260509084039 21 359 0.0 0.0 0.00 0.00 0.00 99 1009.6
20260509083536 21 359 0.0 0.0 0.00 0.00 0.00 99 1009.6
20260509083032 21 358 0.0 0.0 0.00 0.00 0.00 99 1010.0
20260509082530 21 3 0.0 0.0 0.00 0.00 0.00 99 1009.7
20260509082027 21 3 0.0 0.0 0.00 0.00 0.00 99 1009.9
20260509081524 21 2 0.0 0.0 0.00 0.00 0.00 99 1009.9
20260509081021 21 2 0.0 0.0 0.00 0.00 0.00 99 1010.0
20260509080519 21 2 0.0 0.0 0.00 0.00 0.00 99 1009.8
20260509080017 21 11 0.0 0.0 0.00 0.00 0.00 99 1009.9
20260509075514 21 10 0.0 0.0 0.00 0.00 0.00 99 1009.9
20260509075012 21 8 0.0 0.0 0.00 0.00 0.00 99 1010.0
20260509074509 21 13 0.0 0.0 0.00 0.00 0.00 99 1010.0
20260509074005 21 13 0.0 0.0 0.00 0.00 0.00 99 1010.1
20260509073502 21 13 0.0 0.0 0.00 0.00 0.00 99 1010.2
20260509072958 21 13 0.0 0.0 0.00 0.00 0.00 99 1010.0
20260509072455 21 13 0.0 0.0 0.00 0.00 0.00 99 1010.1
20260509071952 21 13 0.0 0.0 0.00 0.00 0.00 99 1010.3
20260509071448 21 13 0.0 0.0 0.00 0.00 0.00 99 1010.4
20260509070946 21 13 0.0 0.0 0.00 0.00 0.00 99 1010.3
20260509070443 21 13 0.0 0.0 0.00 0.00 0.00 99 1010.2
20260509065938 21 13 0.0 0.0 0.00 0.00 0.00 99 1010.4
20260509065434 21 12 0.0 0.0 0.00 0.00 0.00 99 1010.5
20260509064931 21 12 0.0 0.0 0.00 0.00 0.00 99 1010.3
20260509064429 21 12 0.0 0.0 0.00 0.00 0.00 99 1010.3
20260509063927 21 5 0.0 0.0 0.00 0.00 0.00 99 1010.2
20260509063422 21 5 0.0 0.0 0.00 0.00 0.00 99 1010.1
20260509062919 21 5 0.0 0.0 0.00 0.00 0.00 99 1010.4
20260509062416 21 5 0.0 0.0 0.00 0.00 0.00 99 1010.1
20260509061914 21 3 0.0 0.0 0.00 0.00 0.00 99 1010.5
20260509061412 21 3 0.0 0.0 0.00 0.00 0.00 99 1010.4
20260509060908 21 5 0.0 0.0 0.00 0.00 0.00 99 1010.2
20260509060405 21 5 0.0 0.0 0.00 0.00 0.00 99 1010.6
20260509055900 21 5 0.0 0.0 0.00 0.00 0.00 99 1010.6
20260509055356 21 3 0.0 0.0 0.00 0.00 0.00 99 1010.4
20260509054853 21 38 0.0 0.0 0.00 0.00 0.00 99 1010.6
20260509054350 21 1 0.0 0.0 0.00 0.00 0.00 99 1010.7
20260509053848 21 346 0.0 0.0 0.00 0.00 0.00 99 1010.6
20260509053345 21 23 0.0 0.0 0.00 0.00 0.00 99 1010.5
20260509052843 21 26 0.0 0.0 0.00 0.00 0.00 99 1010.4
20260509052340 21 10 1.6 1.6 0.00 0.00 0.00 99 1010.4
20260509051838 21 25 0.0 0.0 0.00 0.00 0.00 99 1010.5
20260509051336 21 36 0.0 0.0 0.00 0.00 0.00 99 1010.5
20260509050832 21 36 0.0 0.0 0.00 0.00 0.00 99 1010.6
20260509050329 21 32 0.0 0.0 0.00 0.00 0.00 99 1010.7
20260509045826 21 16 0.0 0.0 0.00 2.29 2.29 99 1010.8
20260509045323 21 36 0.0 0.0 0.00 2.29 2.29 99 1010.7
20260509044820 21 35 0.0 0.0 0.00 2.29 2.29 99 1010.6
20260509044318 21 31 0.0 0.0 0.00 2.29 2.29 99 1010.7
20260509043814 21 14 0.0 0.0 0.00 2.29 2.29 99 1010.9
20260509043310 21 45 0.0 1.6 0.00 2.29 2.29 99 1010.8
20260509042806 21 33 0.0 0.0 0.00 2.29 2.29 99 1010.5
20260509042306 21 28 0.0 0.0 0.00 2.29 2.29 99 1010.7
20260509041759 21 31 0.0 0.0 0.00 2.29 2.29 99 1010.8
20260509041256 21 32 0.0 0.0 0.00 2.29 2.29 99 1010.4
20260509040755 21 25 0.0 0.0 0.00 2.29 2.29 99 1010.6
20260509040252 21 22 0.0 0.0 0.00 2.29 2.29 99 1010.8
20260509035749 21 14 0.0 0.0 0.00 2.29 2.29 99 1010.6
20260509035246 21 19 0.0 0.0 0.00 2.29 2.29 99 1010.6
20260509034742 21 32 0.0 0.0 0.00 2.29 2.29 99 1010.5
20260509034240 21 13 0.0 0.0 0.00 2.29 2.29 99 1010.6
20260509033737 21 349 0.0 0.0 0.00 2.29 2.29 99 1010.4
20260509033234 21 51 0.0 0.0 0.00 2.29 2.29 99 1010.4
20260509032731 21 29 0.0 0.0 0.00 2.29 2.29 99 1010.4
20260509032228 21 0 0.0 0.0 0.00 2.29 2.29 99 1010.5
20260509031725 21 35 0.0 0.0 0.00 2.29 2.29 99 1010.1
20260509031222 21 79 0.0 1.6 0.00 2.29 2.29 99 1010.4
20260509030720 21 328 1.6 1.6 0.00 2.29 2.29 99 1010.2
20260509030218 21 337 1.6 1.6 0.00 2.29 2.29 99 1010.3
20260509025714 21 24 1.6 1.6 0.00 2.29 2.29 99 1010.3
20260509025210 21 40 0.0 0.0 0.00 2.29 2.29 99 1010.0
20260509024705 21 355 1.6 1.6 0.00 2.29 2.29 99 1010.1
20260509024201 21 5 0.0 0.0 0.00 2.29 2.29 99 1010.1
20260509023659 21 349 1.6 1.6 0.00 2.29 2.29 99 1010.1
20260509023156 21 5 0.0 0.0 0.00 2.29 2.29 99 1010.2
20260509022646 21 11 0.0 0.0 0.00 2.29 2.29 99 1010.0
20260509022144 21 12 0.0 1.6 0.00 2.29 2.29 99 1009.9
20260509021641 21 30 0.0 0.0 0.00 2.29 2.29 99 1010.3
20260509021138 21 16 0.0 0.0 0.00 2.29 2.29 99 1010.1
20260509020637 21 29 0.0 0.0 0.00 2.29 2.29 99 1010.0
20260509020133 21 16 0.0 0.0 0.00 2.29 2.29 99 1010.2
20260509015632 21 11 0.0 0.0 0.00 2.29 2.29 99 1010.1
20260509015129 21 11 0.0 0.0 0.00 2.29 2.29 99 1010.0
20260509014625 21 11 0.0 0.0 0.00 2.29 2.29 99 1010.2
20260509014122 21 9 0.0 0.0 0.00 2.29 2.29 99 1010.1
20260509013619 21 18 0.0 0.0 0.00 2.29 2.29 99 1010.0
20260509013114 21 23 1.6 1.6 0.00 2.29 2.29 99 1010.0
20260509012612 21 5 1.6 1.6 0.18 2.29 2.29 99 1009.9
20260509012108 21 35 0.0 0.0 0.66 2.29 2.29 99 1009.9
20260509011606 21 353 0.0 1.6 3.07 2.26 2.26 99 1009.8
20260509011103 21 2 0.0 1.6 6.83 2.21 2.21 99 1009.7
20260509010601 21 15 1.6 1.6 7.14 1.80 1.80 99 1010.0
20260509010057 21 55 1.6 1.6 2.87 1.04 1.04 99 1009.9
20260509005555 21 22 0.0 0.0 0.30 0.58 0.58 99 1009.8
20260509005050 21 23 0.0 0.0 0.18 0.56 0.56 99 1009.5
20260509004547 21 38 0.0 0.0 0.00 0.53 0.53 99 1009.7
20260509004044 21 54 1.6 1.6 0.00 0.53 0.53 99 1009.7
20260509003542 21 25 0.0 1.6 0.00 0.53 0.53 99 1010.0
20260509003039 21 359 0.0 0.0 0.13 0.53 0.53 99 1010.1
20260509002537 21 58 1.6 1.6 0.61 0.53 0.53 99 1009.9
20260509002034 21 359 1.6 3.2 1.07 0.51 0.51 99 1009.9
20260509001531 21 20 0.0 1.6 0.97 0.46 0.46 99 1010.0
20260509001027 21 30 0.0 0.0 1.37 0.36 0.36 99 1010.2
20260509000526 21 59 1.6 1.6 1.80 0.30 0.30 99 1010.8
20260509000021 22 357 1.6 1.6 0.61 0.10 0.10 97 1010.6
20260508235520 22 319 3.2 4.8 0.00 0.00 0.00 97 1010.0
20260508235015 22 26 0.0 0.0 0.00 0.00 0.00 98 1009.8